Regional Weather Roundup
Issued by NWS

Home | Current Version | Previous Version | Text Only | Print | Product List | Glossary Off
Versions: 1 2 3 4 5 6 7 8 9 10 11 12 13 14 15 16 17 18 19 20 21 22 23 24 25 26 27 28 29 30 31 32 33 34 35 36 37 38 39 40 41 42 43 44 45 46 47 48 49 50

367
ASUS43 KTOP 140408
RWRKS

WEATHER ROUNDUP FOR KANSAS
NATIONAL WEATHER SERVICE GOODLAND KS
1000 PM CST SAT FEB 13 2016

NOTE:  "FAIR" INDICATES FEW OR NO CLOUDS BELOW 12,000 FEET WITH NO
SIGNIFICANT WEATHER AND/OR OBSTRUCTIONS TO VISIBILITY.

KSZ001>006-013>018-027>032-041>047-140500-
NORTHWEST KANSAS

CITY           SKY/WX    TMP DP  RH WIND       PRES   REMARKS
GOODLAND       CLOUDY    32  27  81 S14       29.95R WCI  22
HAYS           PTCLDY    28  12  50 E8        30.00F
HILL CITY      CLOUDY    29  20  69 SE6       29.99F
RUSSELL        CLOUDY    30  14  51 SE13      30.00F WCI  20
$$

KSZ061>065-074>080-084>089-140500-
SOUTHWEST KANSAS

CITY           SKY/WX    TMP DP  RH WIND       PRES   REMARKS
DODGE CITY     CLOUDY    29  21  72 E10       29.95F WCI  20
ELKHART          N/A     43  28  55 NW10        N/A
GARDEN CITY    CLOUDY    30  22  72 E12       29.93F WCI  20
GREAT BEND     CLOUDY    32  12  43 SE13      30.01F WCI  22
LIBERAL        CLEAR     43  28  56 E15       29.89S
PRATT          PTCLDY    31  18  58 E7        30.01F
$$

KSZ066>073-081>083-090>101-140500-
SOUTHEAST KANSAS

CITY           SKY/WX    TMP DP  RH WIND       PRES   REMARKS
CHANUTE        CLOUDY    31   8  38 E8        30.17F
COFFEYVILLE    CLOUDY    35  15  44 NE10      30.17F WCI  27
HUTCHINSON     CLOUDY    32  11  41 SE13      30.05F WCI  22
MEDICINE LODGE   N/A     38  22  52 E13G18    30.01F WCI  30
NEWTON         CLOUDY    25   7  46 E12G17    30.09F WCI  14
PARSONS        CLOUDY    33  11  39 E6        30.18F
WICHITA INTL   CLOUDY    34  10  37 E15       30.06F WCI  24
WICHITA JABRA  CLOUDY    28   9  44 E9        30.07F
WICHITA MCCONL CLOUDY    31  10  40 E14       30.06F WCI  21
WINFIELD       CLOUDY    37  13  37 E9        30.09F
$$

KSZ007>012-019>026-033>040-048>060-102>105-140500-
NORTHEAST KANSAS

CITY           SKY/WX    TMP DP  RH WIND       PRES   REMARKS
CONCORDIA      CLOUDY    22   7  52 E10       30.09F WCI  11
EMPORIA        CLOUDY    22   8  55 E13       30.14F WCI  10
LAWRENCE       CLOUDY    23   3  42 E13       30.23F WCI  11
MANHATTAN      CLOUDY    21   6  52 E9        30.14F
MARYSVILLE     CLOUDY    21   5  49 SE14      30.13F WCI   8
OLATHE IND     CLOUDY    22   4  46 E12       30.23F WCI  10
OLATHE EXE     CLOUDY    22   3  44 E10       30.23F WCI  11
SALINA         CLOUDY    26   9  48 SE13      30.07F WCI  15
TOPEKA BILLARD CLOUDY    23   3  42 E12       30.21F WCI  12
TOPEKA FORBES  CLOUDY    23   5  46 E12       30.18F WCI  12
$$




USA.gov is the U.S. government's official web portal to all federal, state and local government web resources and services.